Simultaneous Nadir Overpasses (SNOs) Predictions

Prediction of SNOs near equator between AQUA and NPP Satellite Orbit:

Table of predicted SNOs near equator for the next 14.0 days since TLE Epoch: 1/23/2016
Index Date (AQUA) Time (AQUA) AQUA Lat,Lon Date (NPP) Time (NPP) NPP Lat,Lon Distance(km) Time Diff (sec)
1 01/24/2016 23:22:18 14.34,-148.79 01/24/2016 23:13:02 14.34,-148.79 0.95 556
2 01/25/2016 00:07:31 0.73, 22.12 01/24/2016 23:59:26 0.74, 21.95 18.86 485
3 01/25/2016 00:55:46 -5.30,-169.28 01/25/2016 00:48:56 -5.40,-169.71 48.65 410
4 01/25/2016 01:43:54 9.79, -0.66 01/25/2016 01:38:19 9.96, -1.35 77.82 335
5 01/27/2016 14:53:36 -29.95, 155.75 01/27/2016 14:43:36 -30.19, 155.71 26.98 600
6 01/27/2016 15:35:37 2.85, -30.42 01/27/2016 15:26:39 2.85, -30.41 1.12 538
7 01/27/2016 16:23:38 2.06, 138.29 01/27/2016 16:15:55 2.11, 138.03 28.60 463
8 01/27/2016 17:11:53 -6.64, -53.12 01/27/2016 17:05:26 -6.72, -53.64 58.61 387
9 01/27/2016 18:00:00 11.19, 115.53 01/27/2016 17:54:48 11.33, 114.74 87.22 312
10 01/30/2016 07:08:01 -22.57, -86.53 01/30/2016 06:58:17 -22.57, -86.52 1.11 584
11 01/30/2016 07:51:35 1.06, 85.85 01/30/2016 07:43:00 1.07, 85.77 9.10 515
12 01/30/2016 08:39:43 3.44,-105.54 01/30/2016 08:32:23 3.49,-105.88 38.74 440
13 01/30/2016 09:27:58 -8.01, 63.06 01/30/2016 09:21:53 -8.15, 62.46 68.27 365
14 01/30/2016 10:16:06 12.50,-128.30 01/30/2016 10:11:16 12.71,-129.17 96.58 290
15 02/01/2016 23:22:10 -14.17, 31.28 02/01/2016 23:12:46 -14.17, 31.28 0.11 564
16 02/02/2016 00:07:42 -0.24,-157.99 02/01/2016 23:59:29 -0.30,-158.15 19.12 493
17 02/02/2016 00:55:49 4.79, 10.64 02/02/2016 00:48:52 4.86, 10.20 48.88 417
18 02/02/2016 01:44:04 -9.36, 179.24 02/02/2016 01:38:22 -9.52, 178.55 78.09 342
19 02/04/2016 14:53:38 29.99, -24.26 02/04/2016 14:43:38 30.60, -24.41 69.58 600
20 02/04/2016 15:35:35 -3.12, 149.56 02/04/2016 15:26:30 -3.12, 149.57 1.09 545
21 02/04/2016 16:23:46 -1.69, -41.79 02/04/2016 16:15:57 -1.73, -42.05 29.20 469
22 02/04/2016 17:11:54 6.19, 126.82 02/04/2016 17:05:20 6.28, 126.30 58.91 394
23 02/04/2016 18:00:09 -10.76, -64.57 02/04/2016 17:54:50 -10.94, -65.35 87.83 319




NCC Satellite Simultaneous Nadir Overpasses (SNOs) Prediction Service
